Weather History for Fort Myers Airport, FL

Change the Weather History Date:

Wednesday, October 10, 2012

  Actual Average Record
Temperature  
Mean Temperature 80 °F -  
Max Temperature 89 °F 87 °F 93 °F (2005)
Min Temperature 73 °F 70 °F 55 °F (2000)
Cooling Degree Days 15    
Growing Degree Days 30 (Base 50)    
Moisture  
Dew Point 70 °F    
Average Humidity 78    
Maximum Humidity 94    
Minimum Humidity 51    
Precipitation  
Precipitation 0.00 in - - ()
Sea Level Pressure  
Sea Level Pressure 30.04 in    
Wind  
Wind Speed 7 mph (NE)    
Max Wind Speed 10 mph    
Max Gust Speed -    
Visibility 10 miles    
Events      
Averages and records for this station are not official NWS values.
T = Trace of Precipitation, MM = Missing Value Source: NWS Daily Summary

Daily Weather History Graph

Daily Weather History Graph

Search for Another Location

Airport:

Trip Planner

Search our weather history database for the weather conditions in past years. The results will help you decide how hot, cold, wet, or windy it might be!

Date:

Astronomy

Oct. 10, 2012 Rise Set
Actual Time 7:24 AM EDT 7:03 PM EDT
Civil Twilight 7:00 AM EDT 7:26 PM EDT
Nautical Twilight 6:33 AM EDT 7:53 PM EDT
Astronomical Twilight 6:07 AM EDT 8:20 PM EDT
Moon 2:26 AM EDT (10/10) 3:40 PM EDT (10/10)
Length of Visible Light 12h 25m
Length of Day
11h 39m
Waning Crescent, 27% of the Moon is Illuminated
Oct 10
Waning Crescent
Oct 15
New
Oct 21
First Quarter
Oct 29
Full
Nov 6
Last Quarter

Hourly Weather History & Observations

Time (EDT) Temp. Heat Index Dew Point Humidity Pressure Visibility Wind Dir Wind Speed Gust Speed Precip Events Conditions
12:53 AM 77.0 °F - 73.0 °F 88% 30.03 in 10.0 mi NE 6.9 mph - N/A   Partly Cloudy
1:53 AM 75.9 °F - 73.0 °F 91% 30.02 in 10.0 mi ENE 5.8 mph - N/A   Clear
2:53 AM 75.0 °F - 73.0 °F 94% 30.01 in 10.0 mi NE 3.5 mph - N/A   Clear
3:53 AM 75.0 °F - 72.0 °F 90% 30.00 in 10.0 mi ENE 5.8 mph - N/A   Clear
4:53 AM 73.9 °F - 71.1 °F 91% 30.01 in 10.0 mi NNE 5.8 mph - N/A   Clear
5:53 AM 73.9 °F - 71.1 °F 91% 30.02 in 10.0 mi NNE 5.8 mph - N/A   Clear
6:31 AM 73.4 °F - 71.6 °F 94% 30.03 in 10.0 mi NE 5.8 mph - N/A   Partly Cloudy
6:53 AM 73.0 °F - 71.1 °F 93% 30.03 in 10.0 mi NE 6.9 mph - N/A   Partly Cloudy
7:53 AM 73.0 °F - 71.1 °F 93% 30.05 in 9.0 mi NE 5.8 mph - N/A   Partly Cloudy
8:00 AM 73.4 °F - 71.6 °F 94% 30.06 in 9.0 mi NE 8.1 mph - N/A   Overcast
8:23 AM 73.4 °F - 71.6 °F 94% 30.07 in 9.0 mi NE 8.1 mph - N/A   Overcast
8:53 AM 73.9 °F - 71.1 °F 91% 30.07 in 10.0 mi NE 10.4 mph - N/A   Overcast
9:53 AM 77.0 °F - 72.0 °F 84% 30.08 in 10.0 mi NE 10.4 mph - N/A   Mostly Cloudy
10:53 AM 81.0 °F 85.8 °F 73.0 °F 77% 30.08 in 10.0 mi ENE 8.1 mph - N/A   Partly Cloudy
11:53 AM 84.0 °F 89.6 °F 72.0 °F 67% 30.08 in 10.0 mi East 6.9 mph - N/A   Scattered Clouds
12:53 PM 86.0 °F 90.7 °F 70.0 °F 59% 30.06 in 10.0 mi ENE 9.2 mph - N/A   Mostly Cloudy
1:53 PM 87.1 °F 92.8 °F 71.1 °F 59% 30.04 in 10.0 mi NE 5.8 mph - N/A   Scattered Clouds
2:53 PM 86.0 °F 90.1 °F 69.1 °F 57% 30.02 in 10.0 mi NE 6.9 mph - N/A   Mostly Cloudy
3:53 PM 86.0 °F 89.4 °F 68.0 °F 55% 30.00 in 10.0 mi ENE 10.4 mph - N/A   Scattered Clouds
4:53 PM 87.1 °F 89.9 °F 66.9 °F 51% 29.99 in 10.0 mi North 10.4 mph - N/A   Mostly Cloudy
5:53 PM 84.9 °F 87.6 °F 66.9 °F 55% 30.00 in 10.0 mi NNE 6.9 mph - N/A   Clear
6:53 PM 82.9 °F 85.8 °F 68.0 °F 60% 30.01 in 10.0 mi ENE 6.9 mph - N/A   Clear
7:22 PM 82.4 °F 85.4 °F 68.0 °F 62% 30.02 in 10.0 mi NE 4.6 mph - N/A   Partly Cloudy
7:53 PM 80.1 °F 82.9 °F 69.1 °F 69% 30.03 in 10.0 mi NE 5.8 mph - N/A   Clear
8:53 PM 79.0 °F - 69.1 °F 72% 30.05 in 10.0 mi NNE 4.6 mph - N/A   Clear
9:53 PM 77.0 °F - 69.1 °F 76% 30.06 in 10.0 mi ENE 5.8 mph - N/A   Clear
10:53 PM 75.9 °F - 69.1 °F 79% 30.09 in 10.0 mi ENE 8.1 mph - N/A   Clear
11:53 PM 73.9 °F - 69.1 °F 85% 30.08 in 10.0 mi ENE 5.8 mph - N/A   Clear